Flag for Switzerland Weather past 2 weeks in Bern, Bern, Switzerland

Now
48 °F

Passing clouds.


Feels Like: 48 °F
Forecast: 45 / 67 °F
Wind: 2 mph from North

Location: Bern / Belp

Current Time: Oct 2, 2014 at 8:31:18 AM

Latest Report: Oct 2, 2014 at 7:50 AM


Visibility: 4 mi

Pressure: 30.33 "Hg

Humidity: 100%

Dew point: 48 °F

Location of BernLocation

Historic Weather in Bern — Graph

°F

Bern temperature yesterday

Maximum temperature yesterday: 70 °F (at 2:50 PM)
Minimum temperature yesterday: 50 °F (at 11:20 PM)
Average temperature yesterday: 59 °F

Past Weeks' High & Low Weather Summary

 TemperatureHumidityPressure
High75 °F (Sep 17, 3:50 PM)100% (Sep 17, 7:20 AM)30.36 "Hg (Sep 17, 7:20 AM)
Low39 °F (Sep 23, 7:20 AM)45% (Sep 23, 3:20 PM)29.86 "Hg (Sep 17, 2:50 PM)
Average57 °F85%30.15 "Hg
* Reported Sep 17 7:20 AM — Oct 2 7:20 AM, Bern, Weather by CustomWeather, © 2014

Note: Actual official high and low records may vary slightly from our data, if they occured in-between our weather recording intervals... More about our weather records

Advertising

Bern weather history for previous 24 hours

 ConditionsComfort  
Time TempWeatherWind HumidityBarometerVisibility
7:20 AM
Oct 2
45 °FFog.3 mph100%30.33 "Hg2 mi
6:50 AM46 °FFog.2 mph93%30.33 "Hg2 mi
6:20 AM45 °FFog.1 mph100%30.33 "Hg2 mi
5:50 AM45 °FFog.1 mph100%30.33 "Hg2 mi
5:20 AM46 °FFog.1 mph93%30.33 "Hg5 mi
4:50 AM46 °FFog.No wind100%30.33 "Hg1 mi
4:20 AM48 °FFog.1 mph100%30.33 "Hg2 mi
3:50 AM46 °FFog.1 mph100%30.33 "Hg2 mi
3:20 AM48 °FCool.1 mph94%30.33 "Hg4 mi
2:50 AM48 °FClear.1 mph100%30.33 "Hg10 mi
2:20 AM48 °FClear.2 mph100%30.33 "Hg10 mi
1:50 AM48 °FCool.1 mph100%30.33 "Hg3 mi
1:20 AM50 °FCool.3 mph100%30.33 "HgN/A
12:50 AM50 °FPassing clouds.1 mph100%30.36 "HgN/A
12:20 AM50 °FCool.1 mph100%30.33 "Hg6 mi
11:50 PM
Oct 1
50 °FCool.2 mph100%30.33 "Hg5 mi
11:20 PM50 °FClear.2 mph100%30.36 "Hg10 mi
10:50 PM52 °FFog.1 mph94%30.33 "Hg1 mi
10:20 PM52 °FFog.1 mph100%30.33 "Hg6 mi
9:50 PM52 °FFog.1 mph100%30.33 "Hg6 mi
9:20 PM55 °FFog.1 mph94%30.33 "Hg6 mi
8:50 PM55 °FPassing clouds.2 mph100%30.33 "HgN/A
8:20 PM55 °FPassing clouds.1 mph94%30.30 "HgN/A
7:50 PM57 °FSunny.1 mph94%30.30 "Hg10 mi
7:20 PM63 °FPassing clouds.3 mph83%30.30 "HgN/A
6:50 PM64 °FPartly sunny.2 mph73%30.30 "HgN/A
6:20 PM68 °FScattered clouds.3 mph64%30.30 "HgN/A
5:50 PM68 °FPartly sunny.3 mph64%30.30 "HgN/A
5:20 PM66 °FScattered clouds.3 mph73%30.30 "HgN/A
4:50 PM68 °FScattered clouds.5 mph64%30.30 "HgN/A
4:20 PM68 °FScattered clouds.3 mph69%30.30 "HgN/A
3:50 PM70 °FScattered clouds.5 mph64%30.30 "HgN/A
3:20 PM70 °FScattered clouds.3 mph64%30.30 "HgN/A
2:50 PM70 °FScattered clouds.5 mph60%30.30 "HgN/A
2:20 PM68 °FScattered clouds.3 mph69%30.30 "HgN/A
1:50 PM66 °FScattered clouds.3 mph73%30.33 "HgN/A
1:20 PM66 °FPartly sunny.2 mph78%30.33 "HgN/A
12:50 PM66 °FPartly sunny.6 mph83%30.33 "HgN/A
12:20 PM63 °FBroken clouds.2 mph83%30.33 "HgN/A
11:50 AM63 °FPartly sunny.1 mph88%30.33 "HgN/A
11:20 AM61 °FPartly sunny.1 mph88%30.33 "HgN/A
10:50 AM59 °FBroken clouds.No wind100%30.33 "Hg4 mi
10:20 AM59 °FDrizzle. Broken clouds.No wind94%30.33 "Hg4 mi
9:50 AM57 °FLight rain. Partly sunny.2 mph100%30.33 "Hg4 mi
9:20 AM57 °FLight rain. Partly sunny.No wind100%30.33 "Hg4 mi
8:50 AM57 °FBroken clouds.No wind94%30.30 "Hg6 mi
8:20 AM55 °FFog.No wind100%30.30 "Hg2 mi
Weather by CustomWeather, © 2014

See weather overviewHow to use our weather pages